Regional Weather Roundup
Issued by NWS Grand Forks, ND

Home | Current Version | Previous Version | Text Only | Print | Product List | Glossary On
Versions: 1 2 3 4 5 6 7 8 9 10 11 12 13 14 15 16 17 18 19 20 21 22 23 24 25 26 27 28 29 30 31 32 33 34 35 36 37 38 39 40 41 42 43 44 45 46 47 48 49 50
000
ASUS43 KFGF 311510
RWRFGF
PRAIRIE TO PINES  WEATHER ROUNDUP
NATIONAL WEATHER SERVICE EASTERN NORTH DAKOTA/GRAND FORKS ND
900 AM CST SAT JAN 31 2015

 **SATELLITE DATA USED TO AUGMENT SKY COVER AT AUTOMATED STATIONS**
 *****  WEATHER ACROSS EASTERN NORTH DAKOTA  *****

CITY           SKY/WX    TMP DP  RH WIND       PRES   REMARKS
GRAND FORKS    MOCLDY     4  -4  69 N18       30.43R WCI -16
GRAND FRKS AFB CLOUDY     3  -6  66 N21G26    30.43R WCI -18
GRAND FRKS NWS   N/A      3 N/A N/A VRB18       N/A  WCI -17
DEVILS LAKE    CLOUDY     3  -8  60 NE18      30.37R WCI -17
FARGO          CLEAR      9   0  67 N21       30.35R WCI -11
WAHPETON ARPT  CLOUDY    14   9  79 N20G28    30.29S WCI  -3
$$

 ***** WEATHER ACROSS CENTRAL AND WESTERN NORTH DAKOTA  *****

CITY           SKY/WX    TMP DP  RH WIND       PRES   REMARKS
BISMARCK       CLOUDY    15  12  88 NE15      30.27R WCI   0
MINOT          FLURRIES   7   0  73 NE15      30.34R WCI -10
JAMESTOWN      MOCLDY    10   4  76 NE17      30.30R WCI  -8
MINOT AFB      LGT SNOW   7   3  85 E15       30.35R FOG     WCI -11
GARRISON         N/A      9   1  70 E16G24    30.28R WCI  -8
WILLISTON      FLURRIES  14   9  80 E18       30.24R WCI  -3
DICKINSON      FOG       20  17  88 E16       30.11S VSB 3/4 WCI   6
HETTINGER      FOG       21  19  92 E15       30.11R VSB 1/2 WCI   8
$$

 *****  OTHER AIRPORT OBSERVATIONS IN OUR AREA  *****

CITY           SKY/WX    TMP DP  RH WIND       PRES   REMARKS
WALHALLA         N/A     -2  -6  84 N14       30.50R WCI -21
GRAFTON AIRPOR NOT AVBL
VALLEY CITY AR FLURRIES   7   7 100 NE17      30.33R WCI -12
CANDO          CLOUDY     1  -4  78 NE16G22   30.40R WCI -18
CAVALIER APRT  PTSUNNY    0  -9  65 N20       30.49R WCI -22
GWINNER        CLOUDY    12   5  73 N25       30.29S WCI  -8
SHEYENNE NWR     N/A      9  -3  58 N16       29.95  WCI  -8
ROLLA          CLOUDY     0  -6  78 N16       30.39R WCI -21
 ***** THE ABOVE OBSERVATIONS ARE NON NWS ARE NOT QUALITY
       CONTROLLED AND MAY MIS-REPORT RAIN FOR SNOW...
$$

  *****  WEATHER ACROSS NORTHERN MINNESOTA  *****

CITY           SKY/WX    TMP DP  RH WIND       PRES   REMARKS
FLAG ISLAND    PTCLDY    -6  -9  84 NW15      30.37R WCI -27
WARROAD        PTCLDY    -4  -9  77 NW8       30.39R WCI -19
ROSEAU         PTCLDY    -2  -9  71 N13       30.39R WCI -21
HALLOCK        PTCLDY    -2  -9  71 N16G24    30.46R WCI -23
THF RVR FALLS  PTCLDY     3  -2  78 N16       30.37R WCI -16
BAUDETTE       CLOUDY    -2  -7  79 NW12      30.34R WCI -20
WASKISH        MOCLDY     3  -4  72 NW3       30.32R
CROOKSTON      PTCLDY     5  -2  72 N17       30.42R WCI -14
STEPHEN NDAWN    N/A      0  -8  71 VRB20       N/A  WCI -22
GREENBUSH NDAW   N/A     -2  -9  71 N12         N/A  WCI -20
$$
  *****  WEATHER ACROSS CENTRAL AND WEST MINNESOTA  *****

CITY           SKY/WX    TMP DP  RH WIND       PRES   REMARKS
FOSSTON        PTCLDY     3   0  85 N16       30.33R WCI -16
BEMIDJI        PTCLDY     6  -4  61 N12G17    30.28R WCI  -9
PARK RAPIDS    FLURRIES  17   9  70 N13       30.23R WCI   4
ELBOW LAKE     CLOUDY    18  16  89 N13       30.22S WCI   5
WADENA         CLOUDY    18  16  93 N8        30.22R WCI   7
DETROIT LAKES  FLURRIES  12  10  92 N10       30.27R WCI  -1
MOORHEAD       PTCLDY    10   0  61 N21       30.34R WCI  -9
FERGUS FALLS   CLOUDY    16  10  79 N12       30.29R WCI   3
MORRIS MN      CLOUDY    21  19  93 N14       30.21S FOG     WCI   8
STAPLES        CLOUDY    19  12  73 N12       30.21R WCI   7
$$
  *****  WEATHER ELSEWHERE ACROSS MINNESOTA  *****

CITY           SKY/WX    TMP DP  RH WIND       PRES   REMARKS
DULUTH         LGT SNOW  19  11  70 NW9       30.16R WCI   8
INTRNTL FALLS  PTCLDY     4  -2  76 N8        30.29R WCI  -9
ELY            LGT SNOW  10   5  79 NW7       30.19S WCI   0
CLOQUET        FLURRIES  19  12  73 N14G21    30.19R WCI   6
WHEATON        CLOUDY    16  12  86 N15G22    30.28R WCI   1
BRAINERD       CLOUDY    20  14  77 N10       30.21R WCI   9
HIBBING        FLURRIES  15   6  67 N12       30.21R WCI   2
ALEXANDRIA     CLOUDY    22  18  85 N14       30.19R WCI   9
SAINT CLOUD    CLOUDY    25  20  81 N9        30.19R WCI  15
MINNEAPOLIS    CLOUDY    27  22  81 N9        30.18R WCI  18
$$

  *****  WEATHER ACROSS SOUTH DAKOTA  *****

CITY           SKY/WX    TMP DP  RH WIND       PRES   REMARKS
SIOUX FALLS    CLOUDY    26  24  92 NE18      30.14R FOG     WCI  13
BROOKINGS      NOT AVBL
WATERTOWN      CLOUDY    18  15  88 NE18      30.15R FOG     WCI   2
HURON          CLOUDY    25  23  92 NE13      30.18R FOG     WCI  14
SISSETON         N/A     17  13  84 NE18      30.25R WCI   1
ABERDEEN       CLOUDY    19  14  81 NE17      30.23R WCI   4
MITCHELL       CLOUDY    27  25  92 NE14      30.15S FOG     WCI  16
PIERRE         CLOUDY    23  22  96 E16       30.14R FOG     WCI  10
MOBRIDGE       CLOUDY    23  20  88 E15       30.15S WCI  10
RAPID CITY     CLOUDY    26  23  88 E6        30.01S WCI  19
$$

  *****  SOME WEATHER IN NEARBY STATES *****

CITY           SKY/WX    TMP DP  RH WIND       PRES   REMARKS
GLASGOW MT     LGT SNOW  22  19  89 E20       30.12R FOG     WCI   7
GREAT FALLS MT CLOUDY    24  23  96 N12       30.11R WCI  13
CHEYENNE WY    LGT SNOW  30  25  81 N9        29.89F WCI  22
SCOTTSBLUFF NE CLOUDY    34  26  72 CALM      29.94S
OMAHA NE       LGT RAIN  37  34  89 S10       30.16S
DES MOINES IA  CLOUDY    37  31  78 SW8       30.19S
DAVENPORT IA   CLOUDY    32  24  72 SW10      30.22S WCI  24
CHICAGO IL     MOSUNNY   28  20  71 SW9       30.23S WCI  19
EAU CLAIRE WI  CLOUDY    24  15  68 NE5       30.16R WCI  18
LA CROSSE WI   CLOUDY    26  17  68 S7        30.18R WCI  18
$$

  *****  SOME NATIONAL WEATHER *****

CITY           SKY/WX    TMP DP  RH WIND       PRES   REMARKS
LA GUARDIA NY  SUNNY     16   1  51 NW20G29   30.14R WCI  -1
RALEIGH NC     PTSUNNY   33   6  32 NW7       30.37R
ATLANTA GA     MOSUNNY   41  19  41 CALM      30.38R
NEW ORLEANS LA MOSUNNY   51  40  65 NE12      30.31R
OKLAHOMA CITY  LGT RAIN  42  35  76 S12       30.16S
ALBUQUERQUE NM LGT SNOW  33  32  96 NW5       29.94R VSB 3/4
SALT LAKE CITY MOCLDY    35  29  78 NW8       30.01R
LOS ANGELES CA PTCLDY    55  54  96 CALM      29.87R FOG
BOISE ID       CLEAR     24  22  91 CALM      30.14S
SEATTLE WA     FOG       39  37  92 N8        30.24S VSB 1/8
$$

*** WEATHER ACROSS MANITOBA...SASKATCHEWAN AND ONTARIO ***
                ***ONTARIO***

CITY           SKY/WX    TMP DP  RH WIND       PRES   REMARKS
GERALDTON      FLURRIES   1  -8  66 NW15G24   30.13  WCI -18
THUNDER BAY    PTSUNNY   10   3  72 NW14      30.22R WCI  -5
SIOUX LOOKOUT  PTCLDY    -8 -17  65 N10G18    30.30R WCI -26
TORONTO        PTSUNNY   16   7  67 W5        30.29F WCI   9
BIG TROUT LK   CLEAR    -27 -35  68 NW10      30.32R WCI -50
PICKLE LAKE    CRYSTALS -18 -27  63 NW9       30.29R WCI -38
DRYDEN         LGT SNOW  -6 -11  77 N12G17    30.30R WCI -24
KENORA         CRYSTALS  -6 -13  71 N14G21    30.33R WCI -26
$$
                *** MANITOBA***

CITY           SKY/WX    TMP DP  RH WIND       PRES   REMARKS
BRANDON        MOCLDY    -9 -15  77 NE14      30.50R WCI -31
DAUPHIN        CLEAR    -15 -22  70 N8        30.61R WCI -32
ISLAND LAKE    CLEAR    -27 -35  68 W10       30.46S WCI -50
PILOT MOUND      N/A     -6 -11  77 N12G20      N/A  WCI -24
THE PAS        PTCLDY   -24 -31  69 NW10      30.64R WCI -46
THOMPSON       CRYSTALS -27 -35  68 W8        30.52R WCI -48
WINNIPEG       PTCLDY    -9 -18  64 N16       30.54R WCI -32
LYNN LAKE      CLEAR    -29 -36  68 W9        30.52S WCI -51
CHURCHILL      BLWGSNOW -24 -29  76 NW28G35   30.32F VSB 1/2 WCI -57
$$
                ***SASKATCHEWAN***

CITY           SKY/WX    TMP DP  RH WIND       PRES   REMARKS
ESTEVAN        LGT SNOW   5   1  85 E16       30.34R DRFTSNOWWCI -14
KINDERSLEY     CLOUDY    -2  -8  78 NE15G21   30.45R WCI -22
LLOYDMINSTER   MOCLDY    -9 -17  70 NE7       30.53R WCI -24
PRINCE ALBERT  MOCLDY   -22 -27  76 N2        30.64R
REGINA         MOCLDY     1  -4  78 E15       30.40R WCI -18
YORKTON        CLEAR    -17 -22  76 N8        30.50R WCI -34
N. BATTLEFORD  CLEAR     -9 -15  77 NE9       30.59R WCI -27
LA RONGE       CLEAR    -33 -38  75 CALM      30.67S
SASKATOON      PTCLDY   -11 -17  77 NE12      30.58R WCI -31
SWIFT CURRENT  FLURRIES   3   0  85 E20G26    30.30R WCI -18
$$
NOTE: THESE ARE AUTOMATED STATIONS WITH LIMITED QUALITY CONTROL
      "FAIR" INDICATES FEW OR NO CLOUDS BELOW 12,000 FEET WITH NO
      SIGNIFICANT WEATHER AND/OR OBSTRUCTIONS TO VISIBILITY.
      SKY/WX - SKY CONDITION AND SIGNIFICANT WEATHER.
      TMP - AIR TEMPERATURE.    DP   - DEWPOINT TEMPERATURE.
      RH  - RELATIVE HUMIDITY.  PRES - PRESSURE.
      HX  - HEAT INDEX.         WCI  - WIND CHILL INDEX.
$


USA.gov is the U.S. government's official web portal to all federal, state and local government web resources and services.